[[{"header":{"parameterUnit":"m.s-1","parameterCategory":1,"la1":30.2991,"la2":30.254,"lo1":-89.0895,"lo2":-89.0444,"dy":0.0017,"dx":0.0017,"nx":28,"ny":28,"refTime":"2023-04-03T21:00:00:Z","depth":0,"parameterNumber":2,"parameterNumberName":"U-component_of_WINDS"},"data":[0,0,0,0,0,0,0,0,0,0,0,0,0,0,0,0,0,0,0,0,0,0,0,0,0,0,0,0,0,0,0,0,0,0,0,0,0,0,0,0,0,0,0,0,0,0,0,0,0,0,0,0,0,0,0,0,0,0,-0.673,-0.673,0,-0.6738,-0.6738,-0.6738,-0.6738,-0.6738,-0.6738,-0.6738,-0.6745,-0.6746,-0.6746,0,0,0,0,0,0,0,0,0,0,0,0,0,-0.6714,-0.6715,-0.673,-0.673,-0.673,-0.6738,-0.6738,-0.6738,-0.6738,-0.6738,-0.6738,-0.6738,-0.6745,-0.6746,-0.6746,0,0,0,0,0,0,0,0,0,0,0,0,0,-0.6722,-0.6715,-0.673,-0.6731,-0.6731,-0.6738,-0.6738,-0.6738,-0.6738,-0.6738,-0.6738,-0.6738,-0.6745,-0.6745,-0.6746,-0.6751,0,0,-0.6747,-0.6747,0,0,0,0,0,0,0,0,-0.6721,-0.6722,-0.6731,-0.6731,-0.6731,-0.6737,-0.6735,-0.6742,-0.6738,-0.6735,-0.6738,-0.6738,-0.6743,-0.6743,-0.6745,-0.6752,-0.6752,-0.6747,-0.6748,-0.6748,-0.6748,0,0,0,0,0,0,0,-0.6721,-0.6722,-0.6733,-0.6731,-0.6731,-0.6731,-0.6732,-0.6736,-0.674,-0.6736,-0.6736,-0.6737,-0.6743,-0.6744,-0.6745,-0.6752,-0.6747,-0.6748,-0.6748,-0.6748,-0.6763,-0.6763,0,0,0,0,0,0,-0.672,-0.6721,-0.6733,-0.6733,-0.6726,-0.6731,-0.6732,-0.6735,-0.674,-0.674,-0.6737,-0.6737,-0.6744,-0.6745,-0.6745,-0.6752,-0.6748,-0.6748,-0.6748,-0.6763,-0.6763,-0.6763,0,0,0,0,0,0,-0.672,-0.6721,-0.6732,-0.6727,-0.6729,-0.6732,-0.6735,-0.6735,-0.6737,-0.674,-0.6741,-0.6738,-0.6744,-0.6745,-0.675,-0.6752,-0.6748,-0.6749,-0.6763,-0.6763,-0.6763,-0.6764,0,0,0,0,0,0,-0.6719,-0.6721,-0.6723,-0.6727,-0.6729,-0.6737,-0.6735,-0.6736,-0.6738,-0.6738,-0.6742,-0.6742,-0.6744,-0.6749,-0.675,-0.6752,-0.6749,-0.6763,-0.6763,-0.6763,-0.6764,-0.6764,-0.6765,0,0,0,0,0,-0.6719,-0.6723,-0.6723,-0.6725,-0.6732,-0.6737,-0.6738,-0.674,-0.6738,-0.674,-0.6742,-0.6742,-0.6751,-0.675,-0.6751,-0.6753,-0.6762,-0.6763,-0.6763,-0.6764,-0.6764,-0.6765,0,0,0,0,0,0,-0.672,-0.6724,-0.6724,-0.673,-0.6733,-0.6737,-0.674,-0.674,-0.6744,-0.6743,-0.6745,-0.6746,-0.6751,-0.6752,-0.675,-0.6758,-0.6757,-0.6757,-0.6757,-0.6757,-0.6758,-0.6757,-0.6749,0,0,0,0,0,-0.6721,-0.6724,-0.6728,-0.6733,-0.6735,-0.6737,-0.6739,-0.674,-0.6743,-0.6744,-0.6747,-0.675,-0.6753,-0.6755,-0.6759,-0.6764,-0.6765,-0.6766,-0.6767,-0.6767,-0.6768,-0.677,-0.677,-0.6764,-0.6764,-0.6764,0,0,-0.6723,-0.6725,-0.6728,-0.6733,-0.6736,-0.6739,-0.6738,-0.6742,-0.6745,-0.6745,-0.675,-0.6752,-0.6755,-0.676,-0.6762,-0.6762,-0.6769,-0.6768,-0.6768,-0.6768,-0.677,-0.6771,-0.6771,-0.6764,-0.6764,-0.6764,0,0,-0.6728,-0.6731,-0.6735,-0.6737,-0.6741,-0.6742,-0.6743,-0.6747,-0.6748,-0.6753,-0.6753,-0.6756,-0.6762,-0.6764,-0.6766,-0.6771,-0.6771,-0.6772,-0.6774,-0.6777,-0.6777,-0.6777,-0.6779,-0.6779,-0.6773,-0.6773,-0.6773,0,-0.673,-0.6736,-0.6737,-0.6741,-0.6743,-0.6743,-0.6747,-0.675,-0.6754,-0.6755,-0.6755,-0.6762,-0.6764,-0.6769,-0.677,-0.6772,-0.6773,-0.6772,-0.6777,-0.6777,-0.6778,-0.6779,-0.678,-0.6773,-0.6773,-0.6773,-0.6773,0,-0.6738,-0.6741,-0.6744,-0.6748,-0.6751,-0.6755,-0.6757,-0.6759,-0.6759,-0.6761,-0.6765,-0.6768,-0.6771,-0.6773,-0.6773,-0.6778,-0.6777,-0.6777,-0.6775,-0.6778,-0.678,-0.678,-0.6773,-0.6773,-0.6773,-0.6773,0,0,-0.6744,-0.6749,-0.675,-0.6751,-0.6755,-0.6758,-0.6761,-0.6765,-0.6766,-0.6769,-0.6772,-0.6777,-0.6776,-0.6778,-0.6779,-0.6781,-0.6784,-0.678,-0.678,-0.678,-0.6789,-0.6789,-0.6789,-0.6784,-0.6784,-0.6784,-0.6788,0,-0.675,-0.6756,-0.6757,-0.6763,-0.6766,-0.6766,-0.6769,-0.6771,-0.6773,-0.6775,-0.6777,-0.678,-0.6779,-0.678,-0.6782,-0.6783,-0.6786,-0.6783,-0.6786,-0.6786,-0.6785,-0.679,-0.6791,-0.6794,-0.6789,-0.6789,-0.6789,0,-0.6757,-0.676,-0.6766,-0.6768,-0.6769,-0.6772,-0.6775,-0.6778,-0.678,-0.6781,-0.6783,-0.6783,-0.6786,-0.6785,-0.6789,-0.6787,-0.6788,-0.6789,-0.6789,-0.679,-0.6788,-0.679,-0.6795,-0.6796,-0.679,-0.679,-0.679,0,-0.676,-0.6766,-0.677,-0.6771,-0.6774,-0.6776,-0.6777,-0.678,-0.6781,-0.6784,-0.6785,-0.6788,-0.6789,-0.6791,-0.6792,-0.6791,-0.6796,-0.6795,-0.6796,-0.6796,-0.6797,-0.6797,-0.6803,-0.6799,-0.6799,-0.6799,-0.6799,0,-0.6766,-0.677,-0.6771,-0.6774,-0.6777,-0.6778,-0.6782,-0.6783,-0.6785,-0.6787,-0.6788,-0.679,-0.6791,-0.6793,-0.6794,-0.6797,-0.6798,-0.6798,-0.6798,-0.6798,-0.6798,-0.6799,-0.6798,-0.6799,-0.6799,-0.6799,-0.6799,0,-0.6771,-0.6772,-0.6776,-0.6779,-0.6779,-0.6782,-0.6784,-0.6786,-0.6787,-0.679,-0.6791,-0.6792,-0.6795,-0.6796,-0.6799,-0.68,-0.6803,-0.6803,-0.6802,-0.6802,-0.6804,-0.6803,-0.681,-0.681,-0.6806,-0.6806,-0.6806,0,-0.6774,-0.6777,-0.6779,-0.6781,-0.6782,-0.6785,-0.6787,-0.6787,-0.6789,-0.6792,-0.6793,-0.6796,-0.6798,-0.6802,-0.6803,-0.6806,-0.6806,-0.6808,-0.6806,-0.6805,-0.6805,-0.6805,-0.6805,-0.6808,-0.6808,-0.6808,-0.6808,0,-0.678,-0.678,-0.6783,-0.6785,-0.6787,-0.6789,-0.6791,-0.6792,-0.6793,-0.6795,-0.6798,-0.68,-0.6803,-0.6805,-0.6807,-0.6808,-0.6808,-0.6808,-0.6809,-0.6809,-0.6808,-0.6808,-0.6803,-0.6808,-0.6808,-0.6808,-0.6808,-0.6808,-0.6784,-0.6786,-0.6788,-0.679,-0.6792,-0.6793,-0.6795,-0.6796,-0.6799,-0.6801,-0.6802,-0.6804,-0.6806,-0.6809,-0.681,-0.6812,-0.6811,-0.6812,-0.6812,-0.6812,-0.6812,-0.6808,-0.6812,-0.6812,-0.6812,-0.6812,-0.6812,0,-0.6789,-0.679,-0.6792,-0.6795,-0.6797,-0.6797,-0.6799,-0.68,-0.6802,-0.6804,-0.6806,-0.6809,-0.6811,-0.6812,-0.6814,-0.6815,-0.6815,-0.6816,-0.6816,-0.6816,-0.6813,-0.6812,-0.6816,-0.6816,-0.6816,-0.6816,-0.6816,-0.6816,-0.6792,-0.6795,-0.6796,-0.6799,-0.6801,-0.6803,-0.6804,-0.6806,-0.6807,-0.681,-0.6812,-0.6812,-0.6814,-0.6816,-0.6818,-0.6818,-0.6819,-0.6819,-0.6819,-0.6816,-0.6816,-0.6816,-0.6815,-0.6819,-0.6819,-0.6822,-0.6822,-0.6822]},{"header":{"parameterUnit":"m.s-1","parameterCategory":1,"la1":30.2991,"la2":30.254,"lo1":-89.0895,"lo2":-89.0444,"dy":0.0017,"dx":0.0017,"nx":28,"ny":28,"refTime":"2023-04-03T21:00:00:Z","depth":0,"parameterNumber":3,"parameterNumberName":"V-component_of_WINDS"},"data":[0,0,0,0,0,0,0,0,0,0,0,0,0,0,0,0,0,0,0,0,0,0,0,0,0,0,0,0,0,0,0,0,0,0,0,0,0,0,0,0,0,0,0,0,0,0,0,0,0,0,0,0,0,0,0,0,0,0,3.6489,3.6489,0,3.6477,3.6476,3.6476,3.6441,3.644,3.6439,3.6438,3.6424,3.6425,3.6425,0,0,0,0,0,0,0,0,0,0,0,0,0,3.6482,3.6483,3.6489,3.6489,3.6489,3.6477,3.6476,3.6476,3.6441,3.644,3.6439,3.6438,3.6424,3.6425,3.6425,0,0,0,0,0,0,0,0,0,0,0,0,0,3.6479,3.6483,3.6489,3.647,3.6468,3.6477,3.6476,3.6476,3.6441,3.644,3.6439,3.6438,3.6424,3.6425,3.6425,3.6452,0,0,3.6427,3.6427,0,0,0,0,0,0,0,0,3.6479,3.6479,3.6473,3.6471,3.6469,3.6459,3.6469,3.6468,3.6441,3.6451,3.6438,3.6437,3.6437,3.6436,3.6436,3.6451,3.645,3.6427,3.6427,3.6427,3.6428,0,0,0,0,0,0,0,3.6479,3.648,3.6484,3.6473,3.647,3.6462,3.646,3.6468,3.6451,3.645,3.6448,3.6447,3.6436,3.6436,3.6436,3.645,3.6427,3.6427,3.6428,3.6428,3.6487,3.6489,0,0,0,0,0,0,3.6483,3.648,3.6485,3.6484,3.6471,3.6463,3.6461,3.6463,3.645,3.6447,3.6448,3.6445,3.6436,3.6435,3.6435,3.6467,3.6427,3.6428,3.6428,3.6486,3.6488,3.6489,0,0,0,0,0,0,3.6483,3.6483,3.6485,3.6481,3.6481,3.6464,3.6467,3.6464,3.6464,3.6448,3.6445,3.6451,3.6435,3.6434,3.6448,3.6466,3.6428,3.6429,3.6485,3.6487,3.6488,3.6529,0,0,0,0,0,0,3.6483,3.6484,3.6493,3.6482,3.6481,3.6499,3.6468,3.6464,3.6465,3.6462,3.6451,3.6448,3.6434,3.6448,3.6449,3.6466,3.6429,3.6483,3.6485,3.6488,3.6526,3.6532,3.6537,0,0,0,0,0,3.6482,3.6505,3.6494,3.6495,3.6493,3.65,3.6499,3.6482,3.6467,3.6477,3.6467,3.6449,3.6463,3.6449,3.645,3.6468,3.6482,3.6485,3.6488,3.6523,3.6531,3.6537,0,0,0,0,0,0,3.6518,3.6503,3.6491,3.651,3.6507,3.6494,3.6505,3.649,3.6491,3.6488,3.6466,3.6464,3.6482,3.6475,3.646,3.6493,3.647,3.6473,3.6497,3.6503,3.6509,3.651,3.6429,0,0,0,0,0,3.6528,3.6535,3.6521,3.6539,3.6538,3.6522,3.6524,3.6512,3.6507,3.6505,3.6496,3.6493,3.6496,3.6499,3.6502,3.6525,3.6522,3.6537,3.6542,3.6547,3.655,3.6564,3.657,3.6498,3.6498,3.6498,0,0,3.6549,3.6542,3.6547,3.6546,3.6542,3.655,3.6521,3.653,3.6536,3.6507,3.652,3.6513,3.6507,3.6526,3.6534,3.6522,3.657,3.6551,3.6555,3.6555,3.6567,3.6574,3.658,3.65,3.65,3.65,0,0,3.6592,3.6586,3.6602,3.6598,3.6593,3.6582,3.6586,3.6575,3.657,3.6583,3.6562,3.6568,3.6575,3.6572,3.6571,3.6614,3.6598,3.6616,3.6645,3.6658,3.6664,3.6669,3.6686,3.6692,3.6619,3.6619,3.6619,0,3.6618,3.6629,3.6611,3.6622,3.6623,3.6598,3.6614,3.6611,3.6606,3.6608,3.6594,3.6603,3.6597,3.6616,3.6626,3.6626,3.6631,3.6617,3.6664,3.6669,3.6674,3.6689,3.6696,3.6621,3.6621,3.6621,3.662,0,3.6663,3.6671,3.6684,3.6682,3.6684,3.6697,3.6681,3.6685,3.6673,3.6664,3.6678,3.667,3.6672,3.6675,3.6662,3.6692,3.6685,3.6668,3.6644,3.6683,3.6698,3.6703,3.6624,3.6624,3.6623,3.6622,0,0,3.6728,3.6716,3.6721,3.672,3.6713,3.6718,3.6731,3.6733,3.6738,3.6735,3.6746,3.6753,3.6738,3.6737,3.6724,3.6735,3.6772,3.6717,3.6717,3.6729,3.6806,3.682,3.6827,3.676,3.6762,3.6762,3.6807,0,3.6769,3.679,3.6775,3.6799,3.6807,3.6783,3.6794,3.6791,3.6783,3.6789,3.6779,3.6786,3.6764,3.6764,3.6774,3.6765,3.6787,3.6761,3.6771,3.6772,3.6775,3.6834,3.6849,3.6891,3.6812,3.6813,3.6814,0,3.682,3.6822,3.6847,3.6839,3.6842,3.6852,3.6854,3.6859,3.6855,3.6848,3.6849,3.6833,3.6845,3.6821,3.6838,3.6821,3.6824,3.682,3.6821,3.6822,3.6796,3.6839,3.6904,3.6912,3.6823,3.6822,3.6821,0,3.6867,3.6875,3.6891,3.6891,3.6882,3.689,3.6887,3.6881,3.6884,3.6885,3.6887,3.6889,3.689,3.6892,3.6878,3.6861,3.6897,3.6871,3.6893,3.6894,3.6902,3.6902,3.6971,3.6902,3.6902,3.6902,3.6902,0,3.6916,3.6932,3.6913,3.6923,3.6941,3.6923,3.6942,3.6936,3.6932,3.6941,3.6919,3.6928,3.6908,3.6915,3.6903,3.692,3.692,3.6916,3.6913,3.6919,3.692,3.6921,3.6919,3.6903,3.6903,3.6903,3.6902,0,3.6971,3.6958,3.6975,3.6966,3.6964,3.6978,3.697,3.6979,3.697,3.6982,3.6983,3.6969,3.6976,3.6962,3.6966,3.6959,3.6983,3.6974,3.6985,3.6983,3.7006,3.7004,3.7079,3.7089,3.7012,3.7013,3.7013,0,3.7004,3.7016,3.7009,3.7014,3.7012,3.702,3.7023,3.7005,3.7009,3.7007,3.7017,3.7022,3.7026,3.7038,3.7028,3.7032,3.7025,3.705,3.7025,3.7031,3.7027,3.7027,3.7029,3.7056,3.7057,3.7058,3.7058,0,3.7064,3.7057,3.7063,3.7066,3.7071,3.7073,3.7073,3.7078,3.706,3.7065,3.7073,3.7076,3.7082,3.7088,3.709,3.7086,3.707,3.7066,3.7072,3.7079,3.7085,3.7084,3.7001,3.7065,3.7064,3.7064,3.7064,3.7063,3.711,3.7121,3.7118,3.7125,3.7123,3.7125,3.7133,3.7126,3.7132,3.7136,3.7125,3.7136,3.7132,3.7133,3.7131,3.7139,3.7128,3.7135,3.7137,3.714,3.7145,3.7083,3.7139,3.7139,3.7139,3.7139,3.7138,0,3.717,3.7167,3.7174,3.7176,3.7182,3.7166,3.7166,3.7172,3.7182,3.718,3.7185,3.7194,3.72,3.7191,3.7196,3.7204,3.7197,3.7206,3.7206,3.7206,3.7154,3.7149,3.7212,3.7212,3.7212,3.7212,3.7212,3.7212,3.7203,3.7221,3.7214,3.7231,3.7228,3.7239,3.724,3.7241,3.724,3.7252,3.7257,3.7252,3.7247,3.7252,3.7257,3.7254,3.7258,3.727,3.7265,3.7216,3.7209,3.7202,3.7198,3.727,3.727,3.7316,3.7317,3.7317]}]]